SCP
0 0 0 0 0 0 0 0 0 0 0 0 0 0 0 0 0 0 0 0 0 0 0 0 0 0 0 0 0 0 0 0 0 0 0 0 0 0
0 0 0 0 0 0 0 0 0 0 0 0 0 0 0 0 0 0 0 0 0 0 0 0 0 0 0 0 0 0 0 0 0 0 0 0 0 0
0 0 0 0 0 0 0 0 0 0 0 0 0 0 0 0 0 0 0 0 0 0 0 0 0 0 0 0 0 0 0 0 0 0 0 0 0 0
0 0 0 0 0 0 0 0 0 0 0 0 0 0 0 0 0 0 0 0 0 0 0 0 0 0 0 0 0 0 0 0 0 0 0 0 0 0
0 0 0 0 0 0 0 0 0 0 0 0 0 0 0 0 0 0 0 0 0 0 0 0 0 0 0 0 0 0 0 0 0 0 0 0 0 0
0 0 0 0 0 0 0 0 0 0 0 0 0 0 0 0 0 0 0 0 0 0 0 0 0 0 0 0 0 0 0 0 0 0 0 0 0 0
0 0 0 0 0 0 0 0 0 0 0 0 0 0 0 0 0 0 0 0 0 0 0 0 0 0 0 0 0 0 0 0 0 0 0 0 0 0
0 0 0 0 0 0 0 0 0 0 0 0 0 0 0 0 0 0 0 0 0 0 0 0 0 0 0 0 0 0 0 0 0 0 0 0 0 0
0 0 0 0 0 0 0 0 0 0 0 0 0 0 0 0 0 0 0 0 0 0 0 0 0 0 0 0 0 0 0 0 0 0 0 0 0 0
0 0 0 0 0 0 0 0 0 0 0 0 0 0 0 0 0 0 0 0 0 0 0 0 0 0 0 0 0 0 0 0 0 0 0 0 0 0
0 0 0 0 0 0 0 0 0 0 0 0 0 0 0 0 0 0 0 0 0 0 0 0 0 0 0 0 0 0 0 0 0 0 0 0 0 0
0 0 0 0 0 0 0 0 0 0 0 0 0 0 0 0 0 0 0 0 0 0 0 0 0 0 0 0 0 0 0 0 0 0 0 0 0 0
0 0 0 0 0 0 0 0 0 0 0 0 0 0 0 0 0 0 0 0 0 0 0 0 0 0 0 0 0 0 0 0 0 0 0 0 0 0
0 0 0 0 0 0 0 0 0 0 0 0 0 0 0 0 0 0 0 0 0 0 0 0 0 0 0 0 0 0 0 0 0 0 0 0 0 0
0 0 0 0 0 0 0 0 0 0 0 0 0 0 0 0 0 0 0 0 0 0 0 0 0 0 0 0 0 0 0 0 0 0 0 0 0 0
0 0 0 0 0 0 0 0 0 0 0 0 0 0 0 0 0 0 0 0 0 0 0 0 0 0 0 0 0 0 0 0 0 0 0 0 0 0
0 0 0 0 0 0 0 0 0 0 0 0 0 0 0 0 0 0 0 0 0 0 0 0 0 0 0 0 0 0 0 0 0 0 0 0 0 0
0 0 0 0 0 0 0 0 0 0 0 0 0 0 0 0 0 0 0 0 0 0 0 0 0 0 0 0 0 0 0 0 0 0 0 0 0 0
0 0 0 0 0 0 0 0 0 0 0 0 0 0 0 0 0 0 0 0 0 0 0 0 0 0 0 0 0 0 0 0 0 0 0 0 0 0
0 0 0 0 0 0 0 0 0 0 0 0 0 0 0 0 0 0 0 0 0 0 0 0 0 0 0 0 0 0 0 0 0 0 0 0 0 0
0 0 0 0 0 0 0 0 0 0 0 0 0 0 0 0 0 0 0 0 0 0 0 0 0 0 0 0 0 0 0 0 0 0 0 0 0 0
0 0 0 0 0 0 0 0 0 0 0 0 0 0 0 0 0 0 0 0 0 0 0 0 0 0 0 0 0 0 0 0 0 0 0 0 0 0
0 0 0 0 0 0 0 0 0 0 0 0 0 0 0 0 0 0 0 0 0 0 0 0 0 0 0 0 0 0 0 0 0 0 0 0 0 0
Wind_Speed
6 6 4 3 3 3 3 3 4 3 3 4 2 2 2 2 3 3 3 9 12 14 15 16 17 17 18 19 20 20 21 21 21 21 22 22 22 22
5 6 5 3 3 3 3 2 3 4 3 3 2 2 1 1 4 2 3 10 12 14 16 16 17 17 18 19 20 20 20 21 21 21 22 22 22 22
6 7 6 5 4 3 3 2 2 3 3 3 2 1 1 2 2 2 3 3 5 13 16 16 17 17 18 19 20 20 21 20 21 21 21 22 22 22
8 7 7 5 5 4 3 4 3 3 3 4 2 1 2 2 2 3 3 4 4 11 15 16 16 17 18 19 20 20 19 20 20 20 21 21 21 21
9 9 7 7 6 4 4 4 3 2 2 2 2 1 2 2 2 3 4 3 5 8 12 14 15 17 18 19 19 19 18 19 19 19 19 20 20 20
7 8 7 8 8 6 5 4 3 2 1 1 2 2 2 2 1 3 4 3 5 6 8 10 13 16 18 19 19 18 18 18 18 18 19 19 19 20
6 6 6 7 8 6 5 4 4 3 2 2 2 2 2 2 2 2 4 4 4 4 3 5 6 5 7 13 16 17 17 18 18 18 19 19 19 20
7 6 6 7 7 8 7 6 6 4 4 3 2 3 3 3 2 3 3 4 4 3 3 5 4 5 5 5 13 17 17 18 18 19 19 19 19 19
7 6 4 4 6 4 5 4 4 5 4 3 3 3 3 3 2 3 3 3 4 4 4 5 4 5 5 8 17 17 17 18 19 19 19 19 19 19
6 6 6 5 5 5 4 3 2 2 3 2 3 3 2 2 2 2 2 3 4 4 3 4 4 4 6 6 13 16 18 19 20 20 19 19 19 18
5 6 6 5 6 6 5 4 2 2 2 2 3 3 4 5 4 2 2 3 5 4 2 2 4 6 5 4 7 15 19 21 21 21 20 20 19 17
4 4 6 6 7 7 5 4 4 3 1 1 1 2 2 3 5 1 1 2 4 4 2 2 3 5 6 3 4 6 9 15 20 21 21 20 19 10
5 4 3 7 7 7 5 3 3 2 1 1 0 1 1 1 1 1 1 1 3 4 3 3 3 3 4 6 5 5 5 6 8 10 15 19 20 15
5 4 4 7 7 6 4 3 2 2 2 1 0 1 1 1 1 2 2 2 3 5 5 3 3 4 5 7 7 6 6 6 6 6 6 13 15 18
4 7 7 7 6 4 4 3 3 2 1 1 1 1 1 1 1 1 2 3 4 4 4 4 4 4 4 6 7 7 8 7 5 5 6 7 6 7
6 7 8 6 4 4 3 2 2 2 1 1 1 1 1 1 1 1 2 2 3 4 4 4 4 4 5 6 7 8 7 6 7 7 8 7 6 5
7 4 3 3 2 2 2 2 1 1 1 1 0 1 1 1 2 2 2 2 3 4 4 4 4 4 6 7 7 7 7 6 6 7 8 9 7 6
7 4 4 3 3 3 2 2 1 1 1 0 0 0 1 1 2 2 2 2 3 4 4 4 4 5 4 5 6 6 5 6 7 7 7 8 9 7
5 4 3 3 3 3 2 2 1 1 1 1 0 1 1 1 2 2 3 3 3 4 4 3 3 4 7 8 7 4 5 8 8 7 6 7 9 10
3 4 3 3 3 3 2 2 1 1 1 1 1 1 1 1 2 2 3 3 4 4 4 3 3 4 5 6 7 8 10 8 7 8 8 7 7 11
4 3 3 3 3 2 2 2 2 1 1 1 1 1 1 1 2 2 3 6 4 3 4 4 5 9 4 4 6 7 6 10 12 9 9 8 8 6
4 4 3 3 3 3 2 2 1 1 1 1 1 1 1 1 2 3 3 3 3 3 4 4 5 4 3 4 7 9 9 10 11 15 13 10 6 6
4 4 3 3 3 2 2 2 2 1 1 1 1 1 1 2 2 2 3 3 3 4 4 4 4 3 3 4 6 7 10 10 8 8 8 12 15 14
Wind_Direction
181 179 176 180 176 175 165 157 163 212 253 246 235 229 214 212 233 232 244 280 293 298 301 304 306 308 310 311 312 311 311 311 310 310 310 310 309 307
174 177 179 172 169 170 174 173 167 179 232 245 232 240 236 263 267 264 264 292 297 300 302 304 305 307 309 310 310 310 311 311 312 312 311 311 311 310
177 180 182 168 167 176 172 177 186 176 223 264 257 270 258 269 290 281 278 280 292 301 303 305 306 308 309 310 310 311 311 313 314 313 313 313 313 312
180 177 179 169 173 177 177 190 199 194 197 248 275 277 265 266 275 284 294 296 288 299 304 307 309 311 313 313 313 313 315 315 314 314 313 314 314 314
178 178 177 171 180 178 182 191 200 202 190 216 267 280 283 289 295 295 297 294 298 302 305 308 311 315 315 315 316 317 318 317 317 316 316 316 316 316
175 177 176 177 182 180 184 189 183 188 197 222 262 281 285 295 305 295 301 293 297 300 301 309 313 315 316 316 318 319 319 319 318 319 319 319 319 318
170 173 175 176 179 179 182 183 178 183 194 225 254 281 285 302 287 280 291 298 295 287 308 310 309 304 308 312 316 317 319 322 322 322 321 321 320 319
169 169 170 172 181 188 192 188 184 186 197 203 229 249 265 273 280 294 301 317 308 304 315 302 303 299 298 294 311 319 322 323 324 323 322 321 319 318
166 166 164 168 169 174 187 192 208 218 208 198 219 238 250 255 270 287 289 290 281 292 313 295 296 297 301 311 318 320 324 325 325 323 321 320 319 318
164 165 163 165 174 170 167 172 192 209 220 210 215 235 251 260 250 271 287 301 293 293 300 290 299 301 308 306 313 322 328 328 327 324 324 323 321 321
150 151 157 166 177 169 159 169 190 236 259 263 272 285 305 313 324 359 339 327 310 303 288 286 306 314 300 292 313 328 330 328 325 325 326 326 324 325
142 149 158 164 171 169 168 174 195 213 197 239 277 303 312 316 327 318 256 299 307 303 318 327 309 329 315 297 312 319 319 320 325 326 326 326 325 324
153 156 164 167 171 178 174 180 201 171 149 169 253 314 331 326 316 301 261 256 280 278 293 320 304 309 292 304 304 300 307 314 318 317 322 325 326 326
156 156 160 164 169 173 175 170 148 119 115 111 330 294 293 289 291 293 288 281 265 270 281 290 283 291 300 303 301 305 313 307 305 304 309 322 325 325
139 142 145 151 154 159 157 146 128 120 126 145 243 266 269 278 308 318 312 303 294 289 290 286 282 287 286 293 298 304 312 309 303 315 315 313 309 312
119 129 131 132 124 127 132 137 125 138 139 175 245 283 308 344 333 322 316 316 309 302 293 290 287 286 288 285 287 295 299 299 312 315 313 307 303 301
127 111 108 120 120 118 119 118 113 108 100 93 61 335 332 334 326 328 322 315 304 306 312 309 300 286 275 278 286 286 293 297 302 312 317 314 306 300
127 134 142 145 150 155 152 145 139 150 149 140 162 298 311 311 313 321 319 307 301 302 306 308 320 324 320 295 263 281 294 302 307 309 310 311 309 307
125 140 147 153 153 153 154 159 172 171 145 150 237 276 300 309 316 316 313 308 303 301 302 306 320 328 326 323 302 296 312 313 311 309 304 302 301 304
133 144 149 151 151 152 157 161 162 153 157 191 235 262 275 296 309 307 304 303 306 308 308 312 312 312 307 305 297 299 307 306 308 309 308 301 288 291
142 142 145 146 147 150 155 158 160 169 176 188 232 263 271 289 299 299 300 309 315 309 310 307 297 314 305 298 300 302 301 310 313 309 309 309 310 305
142 144 145 146 147 151 154 153 155 170 184 195 228 257 269 280 289 292 298 305 302 298 299 299 306 316 317 308 307 308 310 315 318 318 313 306 309 310
144 143 144 147 149 150 151 156 165 188 197 203 223 252 273 285 288 290 297 300 304 308 313 314 316 316 307 302 304 307 311 318 322 324 316 321 321 308